{"data":{"norad_id":63368,"epoch":"2026-09-20T09:57:19.965888Z","epoch_age_seconds":166212,"freshness":"FRESH","line1":"1 63368U 25063F   26263.41481442  .00016484  00000+0  49766-3 0  9996","line2":"2 63368  53.1582 222.2475 0001318  95.5205 264.5948 15.34417729 84592","mean_motion":15.34417729,"eccentricity":0.0001318,"inclination_deg":53.1582,"raan_deg":222.2475,"arg_perigee_deg":95.5205,"mean_anomaly_deg":264.5948,"bstar":0.00049766,"rev_number":8459,"period_min":93.846673743692,"perigee_km":461.74893059164,"apogee_km":463.55216218887,"semimajor_km":6840.7875463903,"source":"CELESTRAK","updated_at":"2026-09-21T09:00:34.972961Z"}}